FENGYUN 1C DEB, 31916

Orbit data source: Space-Track

FENGYUN 1C DEB, 31916 is space debris in SSO originally from a launch on Mon, 10 May 1999 UTC launched from the Taiyaun Space Center, China (TSC). Fengyun 1C debris stems from the Chinese weather satellite Fengyun-1C, which was intentionally destroyed by a Chinese anti-satellite missile in 2007. This event dramatically increased the amount of space debris, with thousands of trackable fragments posing hazards to satellites and human spaceflight. The Fengyun 1C debris cloud has become a focal point in discussions about space sustainability and the need for international regulations to prevent the creation of new debris.

Loading next visibility...
Identifier
31916, 1999-025CLT
Orbit
SSO
Country
Flag of CNCN / PRC
Related business
Manufacturer
Unknown
Mission
Spacecraft
Bus & Motor
Unknown
Mass
Unknown
Launch date (UTC)
1999-05-10 (26 years ago)
Launch vehicle
Unknown
Launch site
Taiyaun Space Center, China (TSC)
Object type
Payload
Rocket body
Debris
Shape & HBR
Unknown shape, 0.1 m
Radar Cross Section
Small (<0.1 m²)

Expand to show TLE details & history
Last TLE update: 13 hours ago

TLE from 13 hours ago
0 FENGYUN 1C DEB
1 31916U 99025CLT 25286.94362773  .00005883  00000-0  19755-2 0  9992
2 31916  99.3324   7.6236 0147517 267.9482  90.4800 14.31644776636716
Epoch: 2025-10-13T22:38Z
TLE epoch observation values (Epoch: 2025-10-13T22:38:49.435Z)
Latitude
-0.00009°
Longitude
5.17848°
Altitude
791.593 km
Speed
7.457 km/s
True Right ascension
00h 30m 29s
True Declination
0° 00' 00"
Sunlit
Object was in full shadow at epoch
Visualization orbit readout
Latitude
Unknown
Longitude
Unknown
Altitude
Unknown
Speed
Unknown
Apparent Right ascension
Unknown
Apparent Declination
Unknown
Sunlit
N/A
Visualization observer readout
Local Sidereal Time
06:14:09
Azimuth
Unknown
Elevation
Unknown
Doppler factor
Unknown
Orbital elements
Apogee altitude
889.056 km
Perigee altitude
677.766 km
Semi-major axis
7,161.548 km
Eccentricity
0.01475
Inclination
99.3324°
RAAN
7.6236°
Arg. of periapsis
267.9482°
True anomaly
92.16985°
Mean anomaly
90.48°
Eccentric anomaly
91.32498°
Mean motion
3.58123 °/min
Orbital period
100.52 mins
BSTAR
0.0019755
Loading maneuver chart data...
Computing Atmospheric mass density...

Documentation

Showing up to 5 results
|